User: anonymous   Login
Location: Unspecified
(0.0000°N, 0.0000°E)
Time: 21:51:03
(UTC+00:00)
Language:

Fuji - Orbit

View from above orbital plane
View from above orbital plane
View from above satellite
View from above satellite

Ground track
Ground track

The orbit data is extracted from the following two-line orbital elements,

1 16909U 86061B   18145.66546438 -.00000087  00000-0  74659-4 0  9998
2 16909  50.0135 205.8945 0011195 230.6052 303.1784 12.44468197445453
Epoch (UTC): 25 May 2018 15:58:16
Eccentricity: 0.0011195
inclination: 50.0135°
perigee height: 1479 km
apogee height: 1496 km
right ascension of ascending node: 205.8945°
argument of perigee: 230.6052°
revolutions per day: 12.44468197
mean anomaly at epoch: 303.1784°
orbit number at epoch: 44545

The dashed part of the orbit path shows where the satellite is in the earth's shadow,  

DLR